Torna al catalogo

KUIPER-00430

AttivoComunicazioniLEO
NORAD 68935·PAYLOAD·🇺🇸 United States

Lanciato Apr 30, 2026 da Guiana Space Centre

Loading…

Prossimi Passaggi (prossime 24 ore)

TLE

AggiornatoSource: CelesTrak SupGP

Epoca: Sep 14, 2026, 23:03 UTC

1 68935C 26098S   26257.96048611  .00002563  00000+0  33541-3 0  2574
2 68935  51.9042  23.5816 0000675 104.9532 318.3543 14.79932846    12

Traccia KUIPER-00430 in tempo reale con AllMySat

Download on the App Store